sat.trackr.live / text

‹ back to catalog

STARLINK-1255

NORAD 45399 · 2020-019AR

PAYLOAD ACTIVE UNKNOWN

§ Identity

Operator
Country
US
Launch date
2020-03-18
Launch site
AFETR
Launch vehicle
Mass (kg)
RCS (m²)

Purposes: comms

External: N2YO · Heavens-Above · Gunter

§ Orbital elements

Epoch: 2026-09-12T06:24:19.778976Z

Period
91.38 min
Inclination
53.0306°
Eccentricity
0.0005831
Mean motion
15.75828096 rev/d
Perigee alt
338.4 km
Apogee alt
346.2 km
Semi-major
6,720.4 km
B*
3.6706e-4
RAAN
266.5125°
Arg perigee
55.9667°
Mean anomaly
304.1905°
Rev number
35,965

§ Raw data

STARLINK-12551 45399U 20019AR  26255.26689559  .00057539  00000+0  36706-3 0  99952 45399  53.0306 266.5125 0005831  55.9667 304.1905 15.75828096359652

JSON: /api/v1/satellites/45399 · /tle

For live sub-satellite position, see the globe view (requires WebGL).

§ Visibility from observer

Set your observer location to see the next 7 days of passes ≥ 10°. The values pass through the URL so the page stays shareable.

No JS? Fill the form by hand. The geolocation button needs JavaScript.